{"data":{"norad_id":64223,"intl_designator":"2025-117W","name":"STARLINK-34337","alt_names":[],"object_type":"PAYLOAD","status":"ACTIVE","operator":null,"country":"US","launch_date":"2025-05-31","launch_site_code":"AFWTR","launch_vehicle":null,"mission":null,"orbit_class":"UNKNOWN","rcs_meters":null,"size_class":null,"mass_kg":null,"dimensions":null,"purposes":["comms"],"wikipedia_slug":null,"has_3d_model":false,"image_url":null,"decayed_at":null,"tle_current":{"epoch":"2026-05-24T23:28:49.757952Z","epoch_age_seconds":70766,"freshness":"FRESH","line1":"1 64223U 25117W   26144.97835368  .00009732  00000+0  34027-3 0  9998","line2":"2 64223  53.1617  45.4029 0001220  91.3859 268.7281 15.30201056 56206","mean_motion":15.30201056,"eccentricity":0.000122,"inclination_deg":53.1617,"raan_deg":45.4029,"arg_perigee_deg":91.3859,"mean_anomaly_deg":268.7281,"bstar":0.00034027,"rev_number":5620,"period_min":94.105280763837,"perigee_km":474.37580782768,"apogee_km":476.04802496328,"semimajor_km":6853.3489163955,"source":"CELESTRAK","updated_at":"2026-05-25T13:38:20.321716Z"}}}